Weather History for KVRB - October, 2012

Change the Weather History Date:

Thursday, October 4, 2012

  Actual Average Record
Temperature  
Mean Temperature 82 °F 79 °F  
Max Temperature 89 °F 86 °F 93 °F (1995)
Min Temperature 74 °F 72 °F 60 °F (1976)
Degree Days  
Heating Degree Days 0 0  
Month to date heating degree days 0 0  
Since 1 July heating degree days 0 0  
Cooling Degree Days 17 14  
Month to date cooling degree days 69 56  
Year to date cooling degree days 3054 2823  
Growing Degree Days 30 (Base 50)    
Moisture  
Dew Point 75 °F    
Average Humidity 81    
Maximum Humidity 94    
Minimum Humidity 68    
Precipitation  
Precipitation 0.04 in 0.21 in 2.91 in (1996)
Month to date precipitation 0.12 0.83  
Year to date precipitation 40.97 42.32  
Sea Level Pressure  
Sea Level Pressure 30.14 in    
Wind  
Wind Speed 5 mph (East)    
Max Wind Speed 13 mph    
Max Gust Speed 18 mph    
Visibility 10 miles    
Events      
T = Trace of Precipitation, MM = Missing Value Source: NWS Daily Summary

Daily Weather History Graph

Daily Weather History Graph

Search for Another Location

Airport or City:

Trip Planner

Search our weather history database for the weather conditions in past years. The results will help you decide how hot, cold, wet, or windy it might be!

Date:

Astronomy

Oct. 04, 2012 Rise Set
Actual Time 7:16 AM EDT 7:03 PM EDT
Civil Twilight 6:52 AM EDT 7:27 PM EDT
Nautical Twilight 6:25 AM EDT 7:54 PM EDT
Astronomical Twilight 5:58 AM EDT 8:21 PM EDT
Moon 10:01 PM EDT (10/4) 11:08 AM EDT (10/4)
Length of Visible Light 12h 34m
Length of Day
11h 47m
Waning Gibbous, 82% of the Moon is Illuminated
Oct 4
Waning Gibbous
Oct 8
Last Quarter
Oct 15
New
Oct 21
First Quarter
Oct 29
Full

Hourly Weather History & Observations

Time (EDT) Temp. Heat Index Dew Point Humidity Pressure Visibility Wind Dir Wind Speed Gust Speed Precip Events Conditions
12:53 AM 75.0 °F - 72.0 °F 90% 30.18 in 10.0 mi Calm Calm - N/A   Clear
1:53 AM 75.0 °F - 73.0 °F 94% 30.15 in 10.0 mi Calm Calm - N/A   Clear
2:53 AM 73.9 °F - 72.0 °F 93% 30.14 in 10.0 mi North 3.5 mph - N/A   Clear
3:53 AM 75.9 °F - 73.9 °F 94% 30.13 in 10.0 mi Calm Calm - N/A   Mostly Cloudy
4:08 AM 78.8 °F - 75.2 °F 89% 30.13 in 10.0 mi East 3.5 mph - N/A   Partly Cloudy
4:53 AM 79.0 °F - 75.9 °F 90% 30.13 in 10.0 mi East 5.8 mph - N/A   Clear
5:53 AM 80.1 °F 85.8 °F 77.0 °F 90% 30.13 in 9.0 mi East 6.9 mph - 0.01 in   Overcast
6:53 AM 80.1 °F 85.8 °F 77.0 °F 90% 30.15 in 10.0 mi East 4.6 mph - 0.03 in   Scattered Clouds
7:53 AM 80.1 °F 85.8 °F 77.0 °F 90% 30.16 in 10.0 mi East 3.5 mph - N/A   Scattered Clouds
8:53 AM 82.9 °F 91.8 °F 77.0 °F 82% 30.17 in 10.0 mi East 8.1 mph - N/A   Clear
9:53 AM 84.9 °F 94.1 °F 75.9 °F 74% 30.18 in 10.0 mi ESE 8.1 mph - N/A   Mostly Cloudy
10:53 AM 87.1 °F 97.3 °F 75.9 °F 69% 30.18 in 10.0 mi ESE 9.2 mph - N/A   Scattered Clouds
11:53 AM 87.1 °F 97.3 °F 75.9 °F 69% 30.17 in 10.0 mi East 9.2 mph - N/A   Scattered Clouds
12:53 PM 88.0 °F 98.5 °F 75.9 °F 67% 30.16 in 10.0 mi East 9.2 mph - N/A   Scattered Clouds
1:53 PM 87.1 °F 97.3 °F 75.9 °F 69% 30.13 in 10.0 mi East 12.7 mph - N/A   Scattered Clouds
2:02 PM 87.8 °F 97.6 °F 75.2 °F 66% 30.14 in 10.0 mi SE 11.5 mph 18.4 mph N/A   Mostly Cloudy
2:53 PM 86.0 °F 95.1 °F 75.0 °F 70% 30.12 in 10.0 mi East 9.2 mph - N/A   Mostly Cloudy
2:55 PM 86.0 °F 95.1 °F 75.2 °F 70% 30.12 in 10.0 mi East 9.2 mph - N/A   Mostly Cloudy
3:53 PM 84.0 °F 91.9 °F 75.0 °F 74% 30.10 in 10.0 mi East 9.2 mph - N/A   Mostly Cloudy
4:53 PM 82.9 °F 90.8 °F 75.9 °F 79% 30.10 in 10.0 mi East 5.8 mph - N/A   Scattered Clouds
5:41 PM 80.6 °F 85.4 °F 73.4 °F 79% 30.10 in 10.0 mi ENE 5.8 mph - N/A   Mostly Cloudy
5:49 PM 80.6 °F 85.4 °F 73.4 °F 79% 30.10 in 10.0 mi NE 3.5 mph - N/A   Mostly Cloudy
5:53 PM 80.1 °F 84.2 °F 73.0 °F 79% 30.10 in 10.0 mi Calm Calm - N/A   Scattered Clouds
6:53 PM 80.1 °F 84.2 °F 73.0 °F 79% 30.11 in 10.0 mi NE 3.5 mph - N/A   Scattered Clouds
7:53 PM 79.0 °F - 75.0 °F 88% 30.12 in 10.0 mi Calm Calm - N/A   Mostly Cloudy
8:53 PM 80.1 °F 85.4 °F 75.9 °F 87% 30.12 in 10.0 mi ENE 3.5 mph - N/A   Clear
9:53 PM 79.0 °F - 75.9 °F 90% 30.14 in 10.0 mi Calm Calm - N/A   Clear
10:53 PM 78.1 °F - 75.0 °F 90% 30.13 in 10.0 mi Calm Calm - N/A   Clear
11:53 PM 77.0 °F - 75.9 °F 96% 30.13 in 10.0 mi Calm Calm - N/A   Clear